Weather History for Chicago DuPage, IL

Change the Weather History Date:

Thursday, January 10, 2013

  Actual Average Record
Temperature  
Mean Temperature 32 °F 23 °F  
Max Temperature 46 °F 31 °F 51 °F (2012)
Min Temperature 18 °F 15 °F -7 °F (2010)
Degree Days  
Heating Degree Days 33 42  
Month to date heating degree days 392 418  
Since 1 July heating degree days 2768 2845  
Cooling Degree Days 0 0  
Month to date cooling degree days 0 0  
Year to date cooling degree days 0 0  
Moisture  
Dew Point 30 °F    
Average Humidity 84    
Maximum Humidity 100    
Minimum Humidity 39    
Precipitation  
Precipitation 0.47 in 0.04 in 0.65 in (2014)
Month to date precipitation 0.48 0.47  
Year to date precipitation 0.48 0.47  
Sea Level Pressure  
Sea Level Pressure 30.18 in    
Wind  
Wind Speed 7 mph (ESE)    
Max Wind Speed 16 mph    
Max Gust Speed 21 mph    
Visibility 6 miles    
Events Rain    
T = Trace of Precipitation, MM = Missing Value Source: NWS Daily Summary

Daily Weather History Graph

Daily Weather History Graph

Search for Another Location

Airport:

Trip Planner

Search our weather history database for the weather conditions in past years. The results will help you decide how hot, cold, wet, or windy it might be!

Date:

Astronomy

Jan. 10, 2013 Rise Set
Actual Time 7:19 AM CST 4:41 PM CST
Civil Twilight 6:48 AM CST 5:12 PM CST
Nautical Twilight 6:14 AM CST 5:47 PM CST
Astronomical Twilight 5:40 AM CST 6:21 PM CST
Moon 5:59 AM CST (1/10) 3:49 PM CST (1/10)
Length of Visible Light 10h 23m
Length of Day
9h 21m
Waning Crescent, 2% of the Moon is Illuminated
Jan 10
Waning Crescent
Jan 11
New
Jan 18
First Quarter
Jan 26
Full
Feb 3
Last Quarter

Hourly Weather History & Observations

Time (CST) Temp. Windchill Dew Point Humidity Pressure Visibility Wind Dir Wind Speed Gust Speed Precip Events Conditions
12:52 AM 24.1 °F - 19.9 °F 84% 30.50 in 10.0 mi Calm Calm - N/A   Clear
1:52 AM 21.0 °F - 18.0 °F 88% 30.51 in 10.0 mi Calm Calm - N/A   Clear
2:52 AM 19.0 °F - 16.0 °F 88% 30.51 in 10.0 mi Calm Calm - N/A   Clear
3:52 AM 21.0 °F - 18.0 °F 88% 30.50 in 10.0 mi Calm Calm - N/A   Clear
4:52 AM 19.0 °F - 16.0 °F 88% 30.48 in 10.0 mi Calm Calm - N/A   Clear
5:52 AM 21.0 °F - 19.0 °F 92% 30.49 in 10.0 mi Calm Calm - N/A   Clear
6:52 AM 19.9 °F - 17.1 °F 89% 30.49 in 10.0 mi Calm Calm - N/A   Clear
8:52 AM 32.0 °F 27.5 °F 25.0 °F 75% 30.46 in 10.0 mi ESE 4.6 mph - N/A   Clear
9:52 AM 37.0 °F 30.4 °F 27.0 °F 67% 30.43 in 10.0 mi SE 9.2 mph - N/A   Clear
10:52 AM 37.9 °F 30.5 °F 25.0 °F 60% 30.38 in 10.0 mi East 11.5 mph - N/A   Clear
11:52 AM 42.1 °F 36.6 °F 24.1 °F 49% 30.34 in 10.0 mi ESE 9.2 mph - N/A   Clear
12:52 PM 46.0 °F 41.0 °F 21.9 °F 39% 30.28 in 10.0 mi ESE 10.4 mph - N/A   Clear
2:52 PM 45.0 °F 40.1 °F 21.0 °F 39% 30.22 in 10.0 mi ESE 9.2 mph - N/A   Mostly Cloudy
3:52 PM 42.1 °F 36.6 °F 26.1 °F 53% 30.19 in 10.0 mi ESE 9.2 mph - 0.00 in   Overcast
4:52 PM 41.0 °F 34.7 °F 28.9 °F 62% 30.16 in 7.0 mi ESE 10.4 mph - 0.00 in Rain Light Rain
5:01 PM 39.2 °F 32.0 °F 30.2 °F 70% 30.13 in 10.0 mi ESE 11.5 mph - 0.00 in Rain Light Rain
5:52 PM 37.9 °F 30.5 °F 33.1 °F 83% 30.13 in 5.0 mi ESE 11.5 mph - 0.01 in Rain Light Rain
6:28 PM 37.4 °F 30.8 °F 33.8 °F 87% 30.07 in 7.0 mi ESE 9.2 mph - 0.00 in   Overcast
6:52 PM 37.9 °F 30.9 °F 35.1 °F 89% 30.09 in 5.0 mi ESE 10.4 mph - 0.00 in   Overcast
7:08 PM 37.4 °F 32.8 °F 35.6 °F 93% 30.05 in 3.0 mi East 5.8 mph - 0.00 in   Overcast
7:21 PM 37.4 °F 32.8 °F 35.6 °F 93% 30.04 in 2.5 mi ESE 5.8 mph - 0.00 in Rain Light Rain
7:40 PM 37.4 °F 30.8 °F 35.6 °F 93% 30.03 in 3.0 mi ESE 9.2 mph - 0.00 in Rain Light Rain
7:49 PM 37.4 °F 31.4 °F 37.4 °F 100% 30.02 in 2.5 mi ESE 8.1 mph - 0.00 in Rain Light Rain
7:52 PM 37.9 °F 30.9 °F 37.0 °F 97% 30.05 in 2.0 mi ESE 10.4 mph - 0.00 in Rain Light Rain
8:05 PM 37.4 °F 30.8 °F 37.4 °F 100% 30.02 in 3.0 mi SE 9.2 mph - 0.00 in Rain Light Rain
8:16 PM 37.4 °F 32.1 °F 37.4 °F 100% 30.01 in 2.0 mi ESE 6.9 mph - 0.01 in Rain Light Rain
8:35 PM 37.4 °F 32.1 °F 37.4 °F 100% 29.99 in 4.0 mi ESE 6.9 mph - 0.02 in Rain Light Rain
8:52 PM 39.0 °F 33.4 °F 37.0 °F 93% 30.01 in 4.0 mi SE 8.1 mph - 0.02 in   Overcast
9:26 PM 39.2 °F 33.6 °F 37.4 °F 93% 29.97 in 2.5 mi SE 8.1 mph - 0.09 in Rain Heavy Rain
9:52 PM 39.0 °F 34.0 °F 39.0 °F 100% 29.96 in 2.5 mi SE 6.9 mph - 0.26 in Rain Heavy Rain
10:14 PM 39.2 °F 34.2 °F 39.2 °F 100% 29.93 in 4.0 mi SE 6.9 mph - 0.07 in Rain Light Rain
10:37 PM 39.2 °F 33.6 °F 39.2 °F 100% 29.92 in 2.5 mi SE 8.1 mph - 0.08 in Rain Light Rain
10:52 PM 41.0 °F 35.2 °F 39.9 °F 96% 29.93 in 3.0 mi SE 9.2 mph - 0.08 in Rain Light Rain
11:52 PM 43.0 °F 38.2 °F 42.1 °F 97% 29.88 in 4.0 mi SE 8.1 mph - 0.10 in Rain Light Rain